User: anonymous   Login
Location: Azul
(36.7830°S, 59.8500°W)
Time: 23:37:20
(UTC-03:00)
Language:

CUBEBUG 2 - Orbit

View from above orbital plane
View from above orbital plane
View from above satellite
View from above satellite

Ground track
Ground track

The orbit data is extracted from the following two-line orbital elements,

1 39440U 13066AA  22220.41395488  .00001444  00000-0  20157-3 0  9997
2 39440  97.7291 175.7983 0077672 323.9836  35.6155 14.77154599467958
Epoch (UTC): 08 August 2022 09:56:05
Eccentricity: 0.0077672
inclination: 97.7291°
perigee height: 584 km
apogee height: 693 km
right ascension of ascending node: 175.7983°
argument of perigee: 323.9836°
revolutions per day: 14.77154599
mean anomaly at epoch: 35.6155°
orbit number at epoch: 46795

The dashed part of the orbit path shows where the satellite is in the earth's shadow,  

DLR